Location: Lisboa
(38.7223°N, 9.1393°W)
Time: 08:25:35
(UTC+00:00)

ISS - Visible Passes

Search period start: 28 February 2024 00:00
Search period end: 09 March 2024 00:00
Orbit: 414 x 422 km, 51.6° (Epoch: 27 February)

Date Brightness Start Highest point End Pass type
(mag) Time Alt. Az. Time Alt. Az. Time Alt. Az.
01 Mar -1.1 05:55:37 10° NNW 05:57:17 13° NNE 05:58:58 10° NE visible
02 Mar -0.9 05:08:41 11° N 05:09:02 11° N 05:09:59 10° NNE visible
03 Mar -1.6 05:55:46 10° NNW 05:58:28 22° NNE 06:01:10 10° ENE visible
04 Mar -1.3 05:09:27 15° N 05:10:12 16° NNE 05:12:25 10° ENE visible
05 Mar -0.3 04:23:26 10° NE 04:23:26 10° NE 04:23:27 10° NE visible
05 Mar -2.9 05:56:22 13° NW 05:59:16 47° NE 06:02:32 10° ESE visible
06 Mar -2.1 05:10:25 28° N 05:11:01 30° NNE 05:14:03 10° E visible
07 Mar -0.5 04:24:34 14° ENE 04:24:34 14° ENE 04:25:19 10° ENE visible
07 Mar -3.7 05:57:30 20° WNW 05:59:39 56° SW 06:02:57 10° SE visible
08 Mar -3.5 05:11:47 67° E 05:11:47 67° E 05:14:48 10° SE visible
